sat.trackr.live / text

‹ back to catalog

JCSAT-13

NORAD 38331 · 2012-023A

PAYLOAD ACTIVE UNKNOWN

§ Identity

Operator
Country
JPN
Launch date
2012-05-15
Launch site
FRGUI
Launch vehicle
Mass (kg)
RCS (m²)
39.81

Purposes: comms

External: N2YO · Heavens-Above · Gunter

§ Orbital elements

Epoch: 2026-05-25T00:54:35.906976Z

Period
1,436.10 min
Inclination
0.0406°
Eccentricity
0.0002540
Mean motion
1.00271320 rev/d
Perigee alt
35,776.0 km
Apogee alt
35,797.4 km
Semi-major
42,164.9 km
B*
0.0000e+0
RAAN
109.8987°
Arg perigee
321.4535°
Mean anomaly
308.9391°
Rev number
5,130

§ Raw data

JCSAT-131 38331U 12023A   26145.03791559 -.00000359  00000+0  00000+0 0  99992 38331   0.0406 109.8987 0002540 321.4535 308.9391  1.00271320 51304

JSON: /api/v1/satellites/38331 · /tle

For live sub-satellite position, see the globe view (requires WebGL).

§ Visibility from observer

Set your observer location to see the next 7 days of passes ≥ 10°. The values pass through the URL so the page stays shareable.

No JS? Fill the form by hand. The geolocation button needs JavaScript.